Waarnemingen

Advertentie
Mijn weer
Gijon, Spanje (8014): temperatuur & dauwpunt: 17.10.2018 14:00:00 - 23.10.2018 14:00:00 (CEST)Gijon, Spanje (8014): windsnelheid: 17.10.2018 14:00:00 - 23.10.2018 14:00:00 (CEST)Gijon, Spanje (8014): windrichting: 17.10.2018 14:00:00 - 23.10.2018 14:00:00 (CEST)Gijon, Spanje (8014): luchtdruk: 17.10.2018 14:00:00 - 23.10.2018 14:00:00 (CEST)Gijon, Spanje (8014): zicht: 17.10.2018 14:00:00 - 23.10.2018 14:00:00 (CEST)
Datum & Tijd tt [°C] td [°C] ff [km/u] ff [kn] dd ppp [hPa] vv [km]
23.10.2018 14:00:00 - - - - - - -
23.10.2018 13:00:00 - - - - - - -
23.10.2018 12:00:00 - - - - - - -
23.10.2018 11:00:00 16,8 15,0 4 2 ONO 1030,6 15
23.10.2018 10:00:00 - - - - - - -
23.10.2018 09:00:00 - - - - - - -
23.10.2018 08:00:00 14,2 13,1 0 0 N 1030,0 15
23.10.2018 07:00:00 - - - - - - -
23.10.2018 06:00:00 - - - - - - -
23.10.2018 05:00:00 - - - - - - -
23.10.2018 04:00:00 - - - - - - -
23.10.2018 03:00:00 - - - - - - -
23.10.2018 02:00:00 - - - - - - -
23.10.2018 01:00:00 - - - - - - -
23.10.2018 00:00:00 - - - - - - -
22.10.2018 23:00:00 - - - - - - -
22.10.2018 22:00:00 - - - - - - -
22.10.2018 21:00:00 - - - - - - -
22.10.2018 20:00:00 17,2 15,2 4 2 O 1030,1 20
22.10.2018 19:00:00 - - - - - - -
22.10.2018 18:00:00 - - - - - - -
22.10.2018 17:00:00 18,3 14,0 9 5 ONO 1029,2 20
22.10.2018 16:00:00 - - - - - - -
22.10.2018 15:00:00 - - - - - - -
22.10.2018 14:00:00 19,7 14,3 5 3 O 1029,1 15
22.10.2018 13:00:00 - - - - - - -
22.10.2018 12:00:00 - - - - - - -
22.10.2018 11:00:00 17,5 13,8 0 0 N 1028,6 10
22.10.2018 10:00:00 - - - - - - -
22.10.2018 09:00:00 - - - - - - -
22.10.2018 08:00:00 16,5 15,2 0 0 N 1026,7 15
22.10.2018 07:00:00 - - - - - - -
22.10.2018 06:00:00 - - - - - - -
22.10.2018 05:00:00 - - - - - - -
22.10.2018 04:00:00 - - - - - - -
22.10.2018 03:00:00 - - - - - - -
22.10.2018 02:00:00 - - - - - - -
22.10.2018 01:00:00 - - - - - - -
22.10.2018 00:00:00 - - - - - - -
21.10.2018 23:00:00 - - - - - - -
21.10.2018 22:00:00 - - - - - - -
21.10.2018 21:00:00 - - - - - - -
21.10.2018 20:00:00 17,3 16,3 5 3 O 1023,0 10
21.10.2018 19:00:00 - - - - - - -
21.10.2018 18:00:00 - - - - - - -
21.10.2018 17:00:00 17,8 16,0 5 3 ONO 1022,3 10
21.10.2018 16:00:00 - - - - - - -
21.10.2018 15:00:00 - - - - - - -
21.10.2018 14:00:00 19,1 15,8 8 4 ONO 1023,1 10
21.10.2018 13:00:00 - - - - - - -
21.10.2018 12:00:00 - - - - - - -
21.10.2018 11:00:00 14,6 13,8 9 5 ZW 1023,4 8
21.10.2018 10:00:00 - - - - - - -
21.10.2018 09:00:00 - - - - - - -
21.10.2018 08:00:00 14,4 13,6 0 0 N 1022,7 8
21.10.2018 07:00:00 - - - - - - -
21.10.2018 06:00:00 - - - - - - -
21.10.2018 05:00:00 - - - - - - -
21.10.2018 04:00:00 - - - - - - -
21.10.2018 03:00:00 - - - - - - -
21.10.2018 02:00:00 - - - - - - -
21.10.2018 01:00:00 - - - - - - -
21.10.2018 00:00:00 - - - - - - -
20.10.2018 23:00:00 - - - - - - -
20.10.2018 22:00:00 - - - - - - -
20.10.2018 21:00:00 - - - - - - -
20.10.2018 20:00:00 17,2 16,2 4 2 O 1023,0 15
20.10.2018 19:00:00 - - - - - - -
20.10.2018 18:00:00 - - - - - - -
20.10.2018 17:00:00 18,5 16,3 5 3 ONO 1023,3 15
20.10.2018 16:00:00 - - - - - - -
20.10.2018 15:00:00 - - - - - - -
20.10.2018 14:00:00 17,6 15,4 5 3 NO 1024,5 6
20.10.2018 13:00:00 - - - - - - -
20.10.2018 12:00:00 - - - - - - -
20.10.2018 11:00:00 15,2 13,6 8 4 ZZW 1024,6 10
20.10.2018 10:00:00 - - - - - - -
20.10.2018 09:00:00 - - - - - - -
20.10.2018 08:00:00 14,3 13,5 2 1 Z 1022,6 15
20.10.2018 07:00:00 - - - - - - -
20.10.2018 06:00:00 - - - - - - -
20.10.2018 05:00:00 - - - - - - -
20.10.2018 04:00:00 - - - - - - -
20.10.2018 03:00:00 - - - - - - -
20.10.2018 02:00:00 - - - - - - -
20.10.2018 01:00:00 - - - - - - -
20.10.2018 00:00:00 - - - - - - -
19.10.2018 23:00:00 - - - - - - -
19.10.2018 22:00:00 - - - - - - -
19.10.2018 21:00:00 - - - - - - -
19.10.2018 20:00:00 17,7 16,6 2 1 O 1021,4 20
19.10.2018 19:00:00 - - - - - - -
19.10.2018 18:00:00 - - - - - - -
19.10.2018 17:00:00 - - - - - - -
19.10.2018 16:00:00 - - - - - - -
19.10.2018 15:00:00 - - - - - - -
19.10.2018 14:00:00 19,0 17,0 8 4 NO 1020,4 8
19.10.2018 13:00:00 - - - - - - -
19.10.2018 12:00:00 - - - - - - -
19.10.2018 11:00:00 16,9 15,9 4 2 W 1020,8 8
19.10.2018 10:00:00 - - - - - - -
19.10.2018 09:00:00 - - - - - - -
19.10.2018 08:00:00 15,7 14,9 5 3 ZZW 1018,2 15
19.10.2018 07:00:00 - - - - - - -
19.10.2018 06:00:00 - - - - - - -
19.10.2018 05:00:00 - - - - - - -
19.10.2018 04:00:00 - - - - - - -
19.10.2018 03:00:00 - - - - - - -
19.10.2018 02:00:00 - - - - - - -
19.10.2018 01:00:00 - - - - - - -
19.10.2018 00:00:00 - - - - - - -
18.10.2018 23:00:00 - - - - - - -
18.10.2018 22:00:00 - - - - - - -
18.10.2018 21:00:00 - - - - - - -
18.10.2018 20:00:00 17,7 16,9 0 0 N 1017,1 15
18.10.2018 19:00:00 - - - - - - -
18.10.2018 18:00:00 - - - - - - -
18.10.2018 17:00:00 18,5 17,0 8 4 NO 1017,2 15
18.10.2018 16:00:00 - - - - - - -
18.10.2018 15:00:00 - - - - - - -
18.10.2018 14:00:00 18,1 17,1 4 2 NO 1017,1 15
18.10.2018 13:00:00 - - - - - - -
18.10.2018 12:00:00 - - - - - - -
18.10.2018 11:00:00 17,2 16,2 9 5 NO 1017,3 15
18.10.2018 10:00:00 - - - - - - -
18.10.2018 09:00:00 - - - - - - -
18.10.2018 08:00:00 16,9 15,4 8 4 NO 1015,7 15
18.10.2018 07:00:00 - - - - - - -
18.10.2018 06:00:00 - - - - - - -
18.10.2018 05:00:00 - - - - - - -
18.10.2018 04:00:00 - - - - - - -
18.10.2018 03:00:00 - - - - - - -
18.10.2018 02:00:00 - - - - - - -
18.10.2018 01:00:00 - - - - - - -
18.10.2018 00:00:00 - - - - - - -
17.10.2018 23:00:00 - - - - - - -
17.10.2018 22:00:00 - - - - - - -
17.10.2018 21:00:00 - - - - - - -
17.10.2018 20:00:00 16,5 14,9 8 4 NNO 1014,7 15
17.10.2018 19:00:00 - - - - - - -
17.10.2018 18:00:00 - - - - - - -
17.10.2018 17:00:00 17,0 14,5 8 4 NO 1014,4 15
17.10.2018 16:00:00 - - - - - - -
17.10.2018 15:00:00 - - - - - - -
17.10.2018 14:00:00 16,9 13,8 5 3 ONO 1015,1 15

tt = temperatuur
td = dauwpunt
ff = windsnelheid
dd = windrichting
ppp = luchtdruk
vv = zicht

Weerstations in de omgeving